Scottsbluff, NE

4:52 AM MST on December 13, 2017 (GMT -0700)
Heilig

Weather History for KBFF - February, 2014

Change the Weather History Date:

Saturday, February 22, 2014

  Actual Average Record
Temperature  
Mean Temperature 28 °F 32 °F  
Max Temperature 34 °F 46 °F 71 °F (1982)
Min Temperature 21 °F 18 °F -15 °F (1913)
Degree Days  
Heating Degree Days 37 33  
Month to date heating degree days 928 777  
Since 1 July heating degree days 4727 4719  
Cooling Degree Days 0 0  
Month to date cooling degree days 0 0  
Year to date cooling degree days 0 0  
Moisture  
Dew Point 22 °F    
Average Humidity 77    
Maximum Humidity 92    
Minimum Humidity 61    
Precipitation  
Precipitation 0.07 in 0.02 in 0.60 in (1909)
Month to date precipitation 0.81 0.44  
Year to date precipitation 1.27 0.85  
Snow  
Snow 1.20 in 0.30 in 6.00 in (1909)
Month to date snowfall 14.1 5.4  
Since 1 July snowfall 44.3 26.8  
Snow Depth 0.00 in    
Sea Level Pressure  
Sea Level Pressure 30.00 in    
Wind  
Wind Speed 7 mph (ENE)    
Max Wind Speed 16 mph    
Max Gust Speed 20 mph    
Visibility 6 miles    
Events Snow    
T = Trace of Precipitation, MM = Missing Value Source: NWS Daily Summary

Daily Weather History Graph

Daily Weather History Graph

Search for Another Location

Airport or City:

Trip Planner

Search our weather history database for the weather conditions in past years. The results will help you decide how hot, cold, wet, or windy it might be!

Date:

Astronomy

Feb. 22, 2014 Rise Set
Actual Time 6:40 AM MST 5:36 PM MST
Civil Twilight 6:11 AM MST 6:04 PM MST
Nautical Twilight 5:39 AM MST 6:36 PM MST
Astronomical Twilight 5:07 AM MST 7:09 PM MST
Moon 12:39 AM MST (2/22) 10:46 AM MST (2/22)
Length of Visible Light 11h 52m
Length of Day
10h 56m
Waning Gibbous, 49% of the Moon is Illuminated
Feb 22
Waning Gibbous
Mar 1
New
Mar 8
First Quarter
Mar 16
Full
Mar 23
Last Quarter

Hourly Weather History & Observations

Time (MST) Temp. Windchill Dew Point Humidity Pressure Visibility Wind Dir Wind Speed Gust Speed Precip Events Conditions
12:53 AM 24.1 °F 18.2 °F 18.0 °F 77% 29.95 in 10.0 mi West 4.6 mph - N/A   Clear
1:53 AM 24.1 °F - 19.0 °F 81% 29.94 in 10.0 mi Calm Calm - N/A   Scattered Clouds
2:53 AM 23.0 °F 17.0 °F 19.0 °F 85% 29.94 in 10.0 mi NW 4.6 mph - N/A   Clear
3:53 AM 23.0 °F 15.8 °F 19.0 °F 85% 29.94 in 10.0 mi NW 5.8 mph - N/A   Partly Cloudy
4:53 AM 21.9 °F 15.7 °F 18.0 °F 85% 29.95 in 10.0 mi NW 4.6 mph - N/A   Clear
5:53 AM 23.0 °F - 19.0 °F 85% 29.97 in 10.0 mi Calm Calm - N/A   Clear
6:53 AM 21.9 °F - 19.0 °F 89% 30.00 in 10.0 mi Calm Calm - N/A   Mostly Cloudy
7:53 AM 25.0 °F - 21.0 °F 85% 29.99 in 10.0 mi Calm Calm - N/A   Overcast
8:53 AM 28.9 °F - 23.0 °F 78% 29.99 in 10.0 mi Calm Calm - N/A   Partly Cloudy
9:53 AM 30.0 °F 25.2 °F 21.9 °F 72% 29.97 in 10.0 mi ESE 4.6 mph - N/A   Partly Cloudy
10:53 AM 30.9 °F 23.5 °F 21.0 °F 67% 29.98 in 10.0 mi SE 8.1 mph - N/A   Partly Cloudy
11:53 AM 33.1 °F 26.9 °F 21.0 °F 61% 29.97 in 10.0 mi East 6.9 mph - N/A   Mostly Cloudy
12:53 PM 34.0 °F 27.2 °F 21.0 °F 59% 29.95 in 10.0 mi East 8.1 mph - N/A   Overcast
1:53 PM 34.0 °F 27.2 °F 21.0 °F 59% 29.95 in 10.0 mi SE 8.1 mph - N/A   Overcast
2:49 PM 33.8 °F 26.4 °F 21.2 °F 60% 29.89 in 10.0 mi East 9.2 mph - N/A   Overcast
2:53 PM 33.1 °F 26.1 °F 21.9 °F 64% 29.97 in 10.0 mi ENE 8.1 mph - N/A   Overcast
3:31 PM 30.9 °F 22.2 °F 24.1 °F 76% 29.90 in 2.5 mi ENE 10.4 mph - 0.00 in Snow Light Snow
3:38 PM 30.9 °F 23.5 °F 24.1 °F 76% 29.91 in 4.0 mi NE 8.1 mph - 0.00 in Snow Light Snow
3:53 PM 30.0 °F 20.5 °F 25.0 °F 82% 30.00 in 5.0 mi ENE 11.5 mph - 0.01 in Snow Light Snow
4:09 PM 30.0 °F 20.5 °F 25.0 °F 82% 29.91 in 2.0 mi ENE 11.5 mph - 0.00 in Snow Light Snow
4:53 PM 28.9 °F 20.4 °F 25.0 °F 85% 30.03 in 2.0 mi ENE 9.2 mph - 0.00 in Snow Light Snow
5:00 PM 28.9 °F 20.4 °F 25.0 °F 85% 29.93 in 1.2 mi ENE 9.2 mph - 0.00 in Snow Light Snow
5:17 PM 28.9 °F 21.1 °F 26.1 °F 89% 29.94 in 0.8 mi NE 8.1 mph - 0.01 in Snow Light Snow
5:33 PM 28.0 °F 18.1 °F 25.0 °F 88% 29.95 in 1.2 mi NE 11.5 mph - 0.02 in Snow Light Snow
5:44 PM 28.0 °F 19.3 °F 25.0 °F 88% 29.96 in 2.5 mi ENE 9.2 mph - 0.02 in Snow Light Snow
5:51 PM 28.4 °F 20.4 °F 24.8 °F 86% 29.96 in 2.5 mi ENE 8.1 mph - 0.02 in Snow Light Snow
5:53 PM 28.0 °F 18.6 °F 25.0 °F 88% 30.06 in 2.5 mi ENE 10.4 mph - 0.02 in Snow Light Snow
6:22 PM 28.0 °F 20.0 °F 25.0 °F 88% 29.98 in 2.0 mi NE 8.1 mph - 0.00 in Snow Light Snow
6:49 PM 26.6 °F 18.2 °F 24.8 °F 93% 29.99 in 3.0 mi ENE 8.1 mph - 0.01 in Snow Light Snow
6:53 PM 27.0 °F 19.5 °F 24.1 °F 89% 30.11 in 3.0 mi ENE 6.9 mph - 0.01 in Snow Light Snow
7:02 PM 27.0 °F 18.0 °F 24.1 °F 89% 30.00 in 3.0 mi ENE 9.2 mph - 0.00 in Snow Light Snow
7:25 PM 27.0 °F 18.0 °F 23.0 °F 85% 30.00 in 2.5 mi ENE 9.2 mph - 0.00 in Snow Light Snow
7:45 PM 26.1 °F 16.2 °F 21.9 °F 84% 30.01 in 3.0 mi ENE 10.4 mph - 0.01 in Snow Light Snow
7:53 PM 26.1 °F 17.6 °F 21.9 °F 84% 30.12 in 3.0 mi ENE 8.1 mph - 0.01 in Snow Light Snow
8:06 PM 26.1 °F 18.4 °F 23.0 °F 88% 30.02 in 3.0 mi East 6.9 mph - 0.00 in Snow Light Snow
8:14 PM 26.1 °F 18.4 °F 23.0 °F 88% 30.02 in 4.0 mi East 6.9 mph - 0.00 in Snow Light Snow
8:25 PM 25.0 °F 13.1 °F 21.9 °F 88% 30.03 in 2.5 mi NE 13.8 mph - 0.00 in Snow Light Snow
8:32 PM 25.0 °F 13.6 °F 21.0 °F 85% 30.04 in 2.5 mi NE 12.7 mph - 0.00 in Snow Light Snow
8:41 PM 24.1 °F 12.5 °F 19.9 °F 84% 30.04 in 3.0 mi ENE 12.7 mph - 0.00 in Snow Light Snow
8:53 PM 24.1 °F 12.5 °F 19.9 °F 84% 30.14 in 4.0 mi NE 12.7 mph - 0.00 in Snow Light Snow
9:53 PM 21.9 °F 9.2 °F 18.0 °F 85% 30.17 in 7.0 mi NE 13.8 mph - 0.01 in Snow Light Snow
10:53 PM 21.9 °F 10.4 °F 17.1 °F 82% 30.15 in 10.0 mi ENE 11.5 mph - 0.00 in   Overcast
11:28 PM 21.9 °F 9.8 °F 17.1 °F 82% 30.06 in 10.0 mi ENE 12.7 mph - N/A   Overcast
11:53 PM 21.0 °F 8.6 °F 16.0 °F 81% 30.17 in 10.0 mi ENE 12.7 mph - N/A   Overcast